Погода в Кузьмином

Россия / Брянская область     53°15′50″N   34°16′40″E
темп.,
°C
ветер,
м/с
пор.,
м/с
влажн.,
%
обл.,
%
осадки,
мм/ч
давл.,
гПа
погр.,
м
11 мая, вт
вт1100:00+6св39780 0.0 1025152
03:00+5с49810 0.0 1025171
06:00+6ссв411835 0.0 1025262
09:00+12св69655 0.0 1024483
12:00+17св68565 0.0 1022835
15:00+20св68565 0.0 10211294
18:00+18в6107073 0.1 10221101
21:00+11вюв41186100 0.4 1023483
12 мая, ср
ср1200:00+8в39911 0.0 1024259
03:00+7вюв411900 0.0 1025392
06:00+6всв389210 0.0 1025209
09:00+12в4765100 0.0 1025791
12:00+15всв465294 0.0 10221760
15:00+14всв4556100 0.1 10201416
18:00+11всв4680100 0.4 1018549
21:00+8в38925 0.4 1017183
13 мая, чт
чт1300:00+9в41287100 0.1 1016507
03:00+9вюв71293100 0.8 10141215
06:00+8юв6129146 0.7 1015689
09:00+11ююв61181100 0.8 10151081
12:00+14ююв585523 0.1 10141775
15:00+17ююв564567 0.1 10132237
18:00+16ю4757100 0.0 1013758
21:00+10ююв33775 0.0 101439
14 мая, пт
пт1400:00+9юв3386100 0.0 101543
03:00+9вюв3788100 0.0 1014122
06:00+10вюв3792100 0.0 1014160
09:00+16вюв598057 0.1 1012577
12:00+21юв796569 0.5 10101363
15:00+21ююв696975 2.3 10091126
18:00+20ю477973 1.7 1009784
21:00+15ююв239370 2.2 100937
15 мая, сб
сб1500:00+14ююв229311 0.0 100917
03:00+13юв2294100 0.0 100815
06:00+13ююв239772 0.4 100872
09:00+18юз457916 0.6 1008538
12:00+19ююз4670100 4.1 1008858
15:00+20зюз456474 9.7 10071241
18:00+18зюз467895 1.6 1008584
21:00+13зюз37935 4.1 1009130